Regional Weather Roundup
Issued by NWS

Home | Current Version | Previous Version | Text Only | Print | Product List | Glossary On
Versions: 1 2 3 4 5 6 7 8 9 10 11 12 13 14 15 16 17 18 19 20 21 22 23 24 25 26 27 28 29 30 31 32 33 34 35 36 37 38 39 40 41 42 43 44 45 46 47 48 49 50
000
ASCA44 KEWX 270620
RWRMX

LATIN AMERICA AND CARIBBEAN REGIONAL WEATHER ROUNDUP
NATIONAL WEATHER SERVICE AUSTIN/SAN ANTONIO TX
100 AM CDT WED MAY 27 2015

NOTE: "FAIR" INDICATED FEW OR NO CLOUDS BELOW 12,000 FEET WITH NO
SIGNIFICANT WEATHER AND/OR OBSTRUCTIONS TO VISIBILITY.

BAJA CALIFORNIA

CITY           SKY/WX    TMP DP  RH WIND       PRES   REMARKS
LA PAZ           N/A    N/A N/A N/A MISG        N/A
TIJUANA        CLOUDY    59  54  82 W6        30.03S

NORTHWESTERN MEXICO

CITY           SKY/WX    TMP DP  RH WIND       PRES   REMARKS
CULIACAN       CLEAR     77  54  44 CALM      29.85S
HERMOSILLO     CLEAR     75  45  33 CALM      29.92S

NORTHEASTERN MEXICO

CITY           SKY/WX    TMP DP  RH WIND       PRES   REMARKS
MATAMOROS      MOCLDY    81  79  94 SE12      29.98S
MONTERREY      CLOUDY    77  73  88 E8        29.96S

WESTERN MEXICO

CITY           SKY/WX    TMP DP  RH WIND       PRES   REMARKS
AGUASCALIENTES   N/A    N/A N/A N/A MISG        N/A
DEL BAJIO      CLOUDY    66  50  55 E2        30.27R
GUADALAJARA    CLEAR     73  50  43 W5        30.15F
MAZATLAN       PTCLDY    70  59  68 W8        29.86S
P. VALLARTA    CLEAR     75  72  88 CALM      29.87S
ZACATECAS      CLEAR     64  30  27 SW21      30.28S

CENTRAL MEXICO

CITY           SKY/WX    TMP DP  RH WIND       PRES   REMARKS
MEXICO CITY    CLEAR     64  48  55 N5        30.34S
QUERETARO      CLEAR     63  61  94 SE8       30.32S
S. LUIS POTOSI CLEAR     63  55  77 SE12      30.25S
TAMPICO          N/A    N/A N/A N/A MISG        N/A
TOLUCA         CLEAR     55  50  82 S7        30.41S

SOUTHERN MEXICO

CITY           SKY/WX    TMP DP  RH WIND       PRES   REMARKS
ACAPULCO       PTCLDY    82  75  78 CALM      29.88S
VERACRUZ         N/A    N/A N/A N/A MISG        N/A

YUCATAN PENINSULA

CITY           SKY/WX    TMP DP  RH WIND       PRES   REMARKS
CANCUN         PTCLDY    82  75  78 E10       30.02F
COZUMEL        PTCLDY    73  73 100 CALM      30.01F
MERIDA         CLEAR     84  72  65 SE18      29.98S
TAPACHULA      CLOUDY    75  73  94 CALM      29.96R

CENTRAL AMERICA

CITY           SKY/WX    TMP DP  RH WIND       PRES   REMARKS
MANAGUA        PTCLDY    82  70  65 E9        29.89S

CARIBBEAN

CITY           SKY/WX    TMP DP  RH WIND       PRES   REMARKS
ARUBA          PTCLDY    81  73  78 E18       29.86
CURACAO        PTCLDY    79  73  83 E13       29.89F
KINGSTON       PTCLDY    77  73  88 VRB2      29.94S
SAN JUAN       PTCLDY    79  72  78 CALM      29.97F
SANTO DOMINGO  PTCLDY    73  72  94 N5        29.94F
ST. CROIX      CLEAR     72  70  94 N3        29.96F
ST. MAARTEN    PTCLDY    77  70  78 E3        29.94F
ST. THOMAS     PTCLDY    77  72  83 CALM      29.95F

$$




USA.gov is the U.S. government's official web portal to all federal, state and local government web resources and services.